Terminal Aerodrome Forecast
Issued by NWS Knoxville/Tri Cities, TN

Home | Current Version | Previous Version | Text Only | Print | Product List | Glossary On
Versions: 1 2 3 4 5 6 7 8 9 10 11 12
000
FTUS44 KMRX 132032 AAA
TAFCHA
TAF AMD
KCHA 132032Z 1321/1418 18010G16KT P6SM SCT120
     FM140100 22008KT P6SM SCT250
     FM141000 32005KT P6SM SCT020 BKN250=

USA.gov is the U.S. government's official web portal to all federal, state and local government web resources and services.